#timestamp,LO_Frequency,Hit 
1505192415.5,286046992.0,N
1505192435.3,286046991.7,N
1505192455.2,286046993.9,N
1505192475.9,286046991.0,N
1505192495.7,286046987.3,P
1505192515.6,286046997.0,N
1505192535.4,286047000.5,N
1505192555.2,286046998.2,N
1505192575.1,286046997.6,N
1505192576.0,286046997.6,N
1505192595.8,286046995.6,N
1505192615.6,286046999.3,N
1505192635.4,286046998.2,N
1505192655.3,286046999.4,N
1505192675.1,286046997.6,N
1505192695.8,286046994.0,N
1505192715.7,286046995.0,N
1505192735.5,286046994.3,N
1505192755.3,286046997.7,N
1505192775.2,286046993.5,N
1505192795.9,286046996.3,N
1505192815.7,286046995.4,N
1505192835.6,286046995.5,N
1505192855.4,286046996.4,N
1505192875.2,286046994.3,N
1505192895.0,286046992.5,N
1505192896.0,286046992.5,N
1505192915.8,286046994.0,N
1505192935.6,286046997.3,N
1505192955.4,286046993.5,N
1505192975.3,286046994.0,N
1505192995.1,286046993.7,N
1505193015.8,286046993.8,N
1505193035.7,286046992.0,P
1505193055.5,286046996.7,N
1505193075.3,286046999.2,N
1505193095.2,286046999.9,N
1505193115.0,286046999.9,N
1505193115.9,286046999.9,N
1505193135.7,286047001.2,N
1505193155.6,286046995.1,N
1505193175.4,286046999.0,N
1505193195.2,286046997.0,N
1505193215.1,286046996.8,N
1505193216.0,286046996.8,N
1505193235.8,286046995.0,N
1505193255.6,286046996.0,N
1505193275.5,286046994.9,N
1505193295.3,286046993.8,N
1505193315.1,286046994.4,N
1505193335.9,286046997.6,N
1505193355.7,286046998.5,N
1505193375.5,286047000.5,N
1505193395.3,286047002.6,N
1505193415.2,286047000.9,N
1505193435.9,286046998.6,N
1505193455.7,286046999.1,N
1505193475.6,286046996.5,N
1505193495.4,286046997.7,N
1505193515.2,286046999.4,N
1505193535.1,286046999.1,N
1505193536.0,286046999.1,N
1505193555.8,286046999.0,N
1505193575.6,286046996.9,N
1505193595.5,286046997.0,N
1505193615.3,286046997.4,N
1505193635.1,286047001.1,N
1505193655.8,286046997.3,N
1505193675.7,286046998.8,N
1505193695.5,286046998.8,N
1505193715.3,286047000.3,N
1505193735.2,286047000.3,N
1505193755.9,286046998.2,N
1505193775.7,286046998.8,N
1505193795.6,286046997.3,N
1505193815.4,286046999.5,N
1505193835.2,286046998.9,N
1505193855.1,286047001.2,N
1505193856.0,286047001.2,N
1505193875.8,286046999.4,N
1505193895.6,286046996.6,N
1505193915.5,286046996.6,N
1505193935.3,286047002.7,N
1505193955.1,286047001.1,N
1505193975.8,286046997.2,N
1505193995.7,286046998.3,N
1505194015.5,286046998.5,N
1505194035.3,286046997.0,N
1505194055.2,286047001.1,N
1505194075.9,286047001.2,N
1505194095.7,286046998.4,N
1505194115.6,286047002.6,N
1505194135.4,286046999.3,N
1505194155.2,286047001.0,N
1505194175.1,286047000.1,N
1505194176.0,286047000.1,N
1505194195.8,286047000.5,N
1505194215.6,286047001.6,N
1505194235.5,286046999.9,N
1505194255.3,286046999.9,N
1505194275.1,286047000.5,N
1505194295.8,286047000.5,N
1505194315.7,286046999.3,N
1505194335.5,286046997.0,N
1505194355.3,286046996.9,N
1505194375.2,286046997.6,N
1505194395.0,286046998.9,N
1505194395.9,286046998.9,N
1505194415.7,286046999.2,N
1505194435.6,286046996.9,N
1505194455.4,286046998.7,N
1505194475.2,286046998.3,N
1505194495.1,286047001.0,N
1505194496.0,286047001.0,N
1505194515.8,286046999.6,N
1505194535.6,286047000.6,N
1505194555.5,286047000.6,N
1505194575.3,286046999.8,N
1505194595.1,286047000.9,N
1505194615.9,286047000.1,N
1505194635.7,286047000.4,N
1505194655.5,286047002.1,N
1505194675.3,286046998.4,N
1505194695.2,286047000.8,N
1505194715.0,286046999.9,N
1505194715.9,286046999.9,N
1505194735.7,286047002.4,N
1505194755.6,286047002.5,N
1505194775.4,286047000.9,N
1505194795.2,286046999.5,N
1505194815.1,286047000.5,N
1505194816.0,286047000.5,N
1505194835.8,286047000.7,N
1505194855.6,286046998.9,N
1505194875.5,286046998.5,N
1505194895.3,286046998.1,N
1505194915.1,286047000.6,N
1505194935.9,286047001.8,N
1505194955.7,286047001.8,N
1505194975.5,286047001.6,N
1505194995.4,286047001.3,N
1505195015.2,286047001.6,N
1505195035.0,286047001.7,N
1505195035.9,286047001.7,N
1505195055.8,286047002.2,N
1505195075.6,286047000.0,N
1505195095.4,286047002.6,N
1505195115.2,286046999.8,N
1505195135.1,286046998.7,N
1505195136.0,286046998.7,N
1505195155.8,286047001.2,N
1505195175.6,286047000.9,N
1505195195.5,286047000.0,N
1505195215.3,286047000.7,N
1505195235.1,286046996.6,N
1505195255.9,286046997.9,N
1505195275.7,286046997.6,N
1505195295.5,286046995.7,N
1505195315.4,286046993.4,P
1505195335.2,286046997.6,N
1505195355.0,286046999.6,N
1505195355.9,286046999.6,N
1505195375.8,286046998.3,N
1505195395.6,286047000.0,N
1505195415.4,286046998.1,N
1505195435.3,286046996.6,N
1505195455.1,286046998.9,N
1505195456.0,286046998.9,N
1505195475.8,286047001.2,N
1505195495.7,286046998.8,N
1505195515.5,286047000.7,N
1505195535.3,286046999.4,N
1505195555.1,286047000.9,N
1505195575.9,286047000.0,N
1505195595.7,286046999.4,N
1505195615.5,286046998.6,N
1505195635.4,286046998.9,N
1505195655.2,286046998.7,N
1505195675.0,286047000.2,N
1505195675.9,286047000.2,N
1505195695.8,286046998.7,N
1505195715.6,286047001.0,N
1505195735.4,286047001.1,N
1505195755.3,286047000.9,N
1505195775.1,286047001.1,N
1505195776.0,286047001.1,N
1505195795.8,286047000.5,N
1505195815.7,286047001.0,N
1505195835.5,286047000.3,N
1505195855.3,286046999.4,N
1505195875.1,286047000.1,N
1505195895.9,286047000.0,N
1505195915.7,286046998.8,N
1505195935.5,286046998.8,N
1505195955.4,286047000.4,N
1505195975.2,286046998.5,N
1505195995.0,286047000.4,N
1505195995.9,286047000.4,N
